loading
DOY 175 | 2024-06-23T11:22:22Z

TITAN 3A TRANSTAGE R/B, 1001

Orbit data source: Space-Track

TITAN 3A TRANSTAGE R/B, 1001 is space debris originally from a launch on Thu, 11 Feb 1965 UTC via a Titan IIIA launch vehicle from the Air Force Eastern Test Range (AFETR). Debris objects in space refer to the collection of defunct objects orbiting the Earth. Examples of debris include non-operational satellites, rocket bodies, and fragments generated from explosions, collisions, or faulty payload assembly.

Loading next visibility...
Loading greatness...
TITAN 3A TRANSTAGE R/B details
NORAD ID1001
COSPAR ID
1965-008A
Orbit
Active
Last TLE update14 hours ago
Origin
Flag of USUSAF SSD (US)
ManufacturerMartin Marietta
BusTruss
MotorUnknown
Mass336 kg wet, 336 kg dry
Launch date (UTC)
1965-02-11 (59 years ago)
Launch vehicle
Titan IIIA
Launch site
Air Force Eastern Test Range (AFETR)
Object type
Payload
Rocket body
Debris
Radar Cross Section11 m², Large (>1 m²)
Predictive object data (real-time)
Latitude-31.17159°
Longitude50.21092°
Altitude2,788.706 km
Speed6.595 km/s
Apparent Right ascension16h 25m 56s
Apparent Declination-54° 42' 07"
Sunlit
Object is in full shadow
Predictive observer data (real-time)
Local Sidereal Time22:30:23
Azimuth223.035° SW
Elevation-32.163°
Doppler factor1
Orbital elements
Apogee2,797.976 km
Perigee2,765.875 km
Semi-major axis9,160.063 km
Eccentricity0.0017522
Inclination32.1509°
RAAN33.0617°
Arg. of periapsis157.6527°
True anomaly202.3971°
Mean anomaly202.4737°
Mean motion2.47569 °/min
BSTAR-0.00027063
Period145.41 mins
Definitive object data (Epoch: 2024-06-22T21:33:19.548Z)
Latitude0.00001°
Longitude158.17539°
Altitude2,792.942 km
Speed6.589 km/s
True Right ascension02h 12m 14s
True Declination0° 00' 00"
Sunlit
Object was in daylight at TLE epoch
TLE from 14 hours ago
0 TITAN 3A TRANSTAGE R/B
1 01001U 65008A   24174.89814292  .00000006  00000-0 -27063-3 0  9990
2 01001  32.1509  33.0617 0017522 157.6527 202.4737  9.90723185149647
Epoch: 2024-06-22T21:33Z
No data available
Other satellites on launch #8 in the year 1965 (1965-02-11 UTC)

TITAN 3A TRANSTAGE R/B Visibility forecast

Observer location: 39.9160978°, -105.1181434, 0m alt.

TITAN 3A TRANSTAGE R/B is not visible in the next 10 days
Span
Click to sort rows by Start time (UTC) header in descending order
Start Az.
Max El. time (UTC)
Max El. Az.
Max El.
End time (UTC)
End Az.